Back to catalog

AEROCUBE 18A

AliveScienceSSO
NORAD 63220·PAYLOAD·🇺🇸 United States

Launched Mar 15, 2025 from Vandenberg Space Force Base

Loading…

Next Passes (next 24 hours)

TLE

FreshSource: Space-Track

Epoch: Sep 14, 2026, 11:14 UTC

1 63220U 25052L   26257.46813639  .00004669  00000-0  18810-3 0  9995
2 63220  97.3822 149.7865 0004670 147.0675 213.0855 15.25329753 83505

Track AEROCUBE 18A in real time with AllMySat

Download on the App Store